Home > Weather > Santos > Past weeks

Flag for Brazil Past Weather in Santos, São Paulo, Brazil — Yesterday and Last 2 Weeks

Now
77 °F

Clear.


Feels Like: 78 °F
Forecast: N/A
Wind: 9 mph from North

Location: Sao Paulo Airport

Current Time: Jul 26, 2016 at 6:51:03 PM

Latest Report: Jul 26, 2016 at 6:00 PM


Visibility: 10 mi

Pressure: 30.09 "Hg

Humidity: 36%

Dew Point: 48 °F

Location of SantosLocation

Past Weather in Santos — Graph

°F

Santos Temperature Yesterday

Maximum temperature yesterday: 77 °F (at 2:00 PM)
Minimum temperature yesterday: 57 °F (at 2:00 AM)
Average temperature yesterday: 65 °F

High & Low Weather Summary for the Past Weeks

 TemperatureHumidityPressure
High84 °F (Jul 15, 2:00 PM)94% (Jul 17, 12:00 AM)30.30 "Hg (Jul 17, 12:00 AM)
Low46 °F (Jul 18, 1:01 AM)27% (Jul 15, 2:00 PM)29.89 "Hg (Jul 16, 5:00 AM)
Average62 °F65%30.15 "Hg
* Reported Jul 11 5:00 PM — Jul 26 5:00 PM, Santos, Weather by CustomWeather, © 2016

Note: Actual official high and low records may vary slightly from our data, if they occured in-between our weather recording intervals... More about our weather records

Advertising

Santos Weather History for the Previous 24 Hours

Scroll right to see more
 ConditionsComfort  
Time TempWeatherWind HumidityBarometerVisibility
5:00 PM
Tue, Jul 26
79 °FClear.12 mph32%30.07 "Hg10 mi
4:00 PM79 °FSunny.15 mph32%30.07 "Hg10 mi
3:00 PM81 °FSunny.18 mph30%30.07 "Hg10 mi
2:00 PM81 °FSunny.17 mph30%30.09 "Hg10 mi
1:00 PM81 °FSunny.16 mph32%30.12 "Hg10 mi
12:00 PM77 °FPassing clouds.13 mph36%30.15 "HgN/A
11:00 AM77 °FSunny.9 mph42%30.18 "Hg10 mi
10:00 AM72 °FPassing clouds.9 mph50%30.18 "HgN/A
9:00 AM66 °FPassing clouds.6 mph60%30.18 "HgN/A
8:00 AM63 °FSunny.2 mph68%30.18 "Hg10 mi
7:00 AM57 °FClear.2 mph82%30.15 "Hg5 mi
6:00 AM59 °FSunny.2 mph77%30.15 "Hg10 mi
5:00 AM61 °FPassing clouds.3 mph72%30.12 "HgN/A
4:00 AM61 °FPassing clouds.3 mph72%30.12 "HgN/A
3:00 AM63 °FClear.6 mph68%30.15 "Hg10 mi
2:00 AM63 °FPassing clouds.3 mph64%30.15 "HgN/A
1:00 AM63 °FClear.2 mph64%30.18 "Hg10 mi
12:00 AM63 °FClear.2 mph64%30.18 "Hg10 mi
11:00 PM
Mon, Jul 25
63 °FPassing clouds.3 mph68%30.18 "HgN/A
10:00 PM64 °FClear.3 mph64%30.18 "Hg4 mi
9:00 PM64 °FClear.3 mph64%30.18 "Hg4 mi
8:00 PM64 °FClear.3 mph64%30.18 "Hg4 mi
7:00 PM66 °FClear.6 mph60%30.18 "Hg10 mi
6:00 PM66 °FClear.7 mph60%30.18 "Hg10 mi
Weather by CustomWeather, © 2016

See weather overviewHow to use our weather pages